User: anonymous   Login
Location: Unspecified
(0.0000°N, 0.0000°E)
Time: 05:35:47
(UTC+00:00)
Language:

ELEKTRO-L - Orbit

View from above orbital plane
View from above orbital plane
View from above satellite
View from above satellite

Ground track
Ground track

The orbit data is extracted from the following two-line orbital elements,

1 37344U 11001A   15116.10333566 -.00000115  00000-0  10000-3 0  9997
2 37344 000.8701 080.7005 0002132 220.0963 026.1045 01.00268162 15650
Epoch (UTC): 26 April 2015 02:28:48
Eccentricity: 0.0002132
inclination: 0.8701°
perigee height: 35778 km
apogee height: 35796 km
right ascension of ascending node: 80.7005°
argument of perigee: 220.0963°
revolutions per day: 1.00268162
mean anomaly at epoch: 26.1045°
orbit number at epoch: 1565

The dashed part of the orbit path shows where the satellite is in the earth's shadow,  

DLR